UAL712 KEWR-KLAX

Flight info

Callsign UAL712
Flight time 5h 8m
Altitude 38000
Route NEWEL J60 DANNR RAV J64 FWA EDENS/N0482F400 WELKY Q90 DNERO ANJLL4
Aircraft B78X/H-SDE1E2E3FGHIJ2J3J4J5M1RWXY/LB1D1

Departure

Time 2026-04-24 16:03
Airport Newark Liberty International Airport (KEWR)

Arrival

Time 2026-04-24 21:11
Airport Los Angeles International Airport (KLAX)
Time Latitude Longitude Altitude Speed Heading
2026-04-24 15:32 40.69913 -74.17771 27 ft 0 kts 242°
2026-04-24 15:51 40.69915 -74.17767 26 ft 2 kts 242°
2026-04-24 15:51 40.69922 -74.17748 27 ft 2 kts 242°
2026-04-24 15:52 40.69929 -74.17728 25 ft 2 kts 290°
2026-04-24 15:52 40.69921 -74.17708 26 ft 2 kts 338°
2026-04-24 15:52 40.69906 -74.17703 25 ft 2 kts 352°
2026-04-24 15:52 40.69890 -74.17700 27 ft 2 kts 352°
2026-04-24 15:53 40.69873 -74.17696 26 ft 2 kts 21°
2026-04-24 15:53 40.69859 -74.17705 25 ft 2 kts 28°
2026-04-24 15:53 40.69851 -74.17710 27 ft 0 kts 39°
2026-04-24 15:56 40.69866 -74.17696 27 ft 7 kts 34°
2026-04-24 15:56 40.69940 -74.17667 29 ft 14 kts 31°
2026-04-24 15:57 40.69967 -74.17523 29 ft 21 kts 94°
2026-04-24 15:57 40.69921 -74.17331 28 ft 22 kts 121°
2026-04-24 15:57 40.69823 -74.17178 27 ft 22 kts 136°
2026-04-24 15:57 40.69701 -74.17064 26 ft 22 kts 152°
2026-04-24 15:58 40.69557 -74.16994 28 ft 22 kts 167°
2026-04-24 15:58 40.69408 -74.16974 27 ft 21 kts 181°
2026-04-24 15:58 40.69261 -74.17014 29 ft 22 kts 201°
2026-04-24 15:58 40.69121 -74.17097 28 ft 22 kts 205°
2026-04-24 15:59 40.68979 -74.17190 28 ft 22 kts 206°
2026-04-24 15:59 40.68847 -74.17273 28 ft 20 kts 205°
2026-04-24 15:59 40.68723 -74.17352 31 ft 19 kts 206°
2026-04-24 15:59 40.68606 -74.17427 32 ft 19 kts 205°
2026-04-24 16:00 40.68468 -74.17514 30 ft 24 kts 206°
2026-04-24 16:00 40.68320 -74.17607 26 ft 21 kts 205°
2026-04-24 16:00 40.68184 -74.17694 30 ft 22 kts 206°
2026-04-24 16:00 40.68048 -74.17782 28 ft 22 kts 206°
2026-04-24 16:01 40.67911 -74.17868 28 ft 21 kts 206°
2026-04-24 16:01 40.67781 -74.17952 28 ft 21 kts 205°
2026-04-24 16:01 40.67646 -74.18030 28 ft 21 kts 192°
2026-04-24 16:01 40.67572 -74.17964 28 ft 7 kts 94°
2026-04-24 16:02 40.67599 -74.17908 28 ft 11 kts 43°
2026-04-24 16:02 40.67627 -74.17887 27 ft 0 kts 26°
2026-04-24 16:02 40.67767 -74.17796 30 ft 62 kts 26°
2026-04-24 16:02 40.68414 -74.17386 29 ft 142 kts 26°
2026-04-24 16:03 40.69494 -74.16728 324 ft 187 kts 21°
2026-04-24 16:03 40.70711 -74.16055 1424 ft 185 kts 26°
2026-04-24 16:03 40.71744 -74.15038 2245 ft 192 kts 41°
2026-04-24 16:03 40.72770 -74.13801 2802 ft 208 kts 38°
2026-04-24 16:04 40.74145 -74.13178 3364 ft 221 kts 355°
2026-04-24 16:04 40.75540 -74.14034 4042 ft 232 kts 315°
2026-04-24 16:04 40.76226 -74.15997 4826 ft 245 kts 285°
2026-04-24 16:04 40.76401 -74.18255 5665 ft 249 kts 279°
2026-04-24 16:05 40.76449 -74.22835 7325 ft 252 kts 275°
2026-04-24 16:05 40.76034 -74.25141 8066 ft 263 kts 261°
2026-04-24 16:06 40.74718 -74.29692 9613 ft 263 kts 261°
2026-04-24 16:06 40.74252 -74.31958 9990 ft 264 kts 267°
2026-04-24 16:06 40.73382 -74.36615 10032 ft 265 kts 265°
2026-04-24 16:07 40.72977 -74.38979 10011 ft 262 kts 266°
2026-04-24 16:07 40.72563 -74.41327 10199 ft 264 kts 267°
2026-04-24 16:07 40.71958 -74.46155 10037 ft 264 kts 290°
2026-04-24 16:08 40.72834 -74.48373 9950 ft 281 kts 307°
2026-04-24 16:08 40.75070 -74.52673 10635 ft 290 kts 303°
2026-04-24 16:09 40.76735 -74.57654 12314 ft 304 kts 291°
2026-04-24 16:09 40.77356 -74.60348 13144 ft 309 kts 291°
2026-04-24 16:09 40.78038 -74.63021 13932 ft 313 kts 293°
2026-04-24 16:09 40.78784 -74.65741 14696 ft 317 kts 293°
2026-04-24 16:10 40.80989 -74.74111 16921 ft 326 kts 292°
2026-04-24 16:11 40.82491 -74.79813 18351 ft 332 kts 291°
2026-04-24 16:11 40.83249 -74.82705 18947 ft 335 kts 291°
2026-04-24 16:11 40.84014 -74.85629 19518 ft 338 kts 291°
2026-04-24 16:12 40.85564 -74.91556 20638 ft 345 kts 292°
2026-04-24 16:12 40.86351 -74.94571 21159 ft 348 kts 292°
2026-04-24 16:12 40.87944 -75.00685 22229 ft 355 kts 292°
2026-04-24 16:13 40.88751 -75.03788 22733 ft 359 kts 292°
2026-04-24 16:13 40.90387 -75.10091 23637 ft 366 kts 292°
2026-04-24 16:14 40.91913 -75.16583 24450 ft 376 kts 281°
2026-04-24 16:14 40.91874 -75.20086 24859 ft 389 kts 265°
2026-04-24 16:14 40.90100 -75.26960 25624 ft 405 kts 254°
2026-04-24 16:15 40.89365 -75.29284 25910 ft 406 kts 255°
2026-04-24 16:15 40.87411 -75.37534 26799 ft 407 kts 261°
2026-04-24 16:16 40.85704 -75.44747 27547 ft 415 kts 258°
2026-04-24 16:16 40.84815 -75.48396 27914 ft 418 kts 259°
2026-04-24 16:17 40.82198 -75.59539 29063 ft 428 kts 259°
2026-04-24 16:17 40.80391 -75.67094 29872 ft 434 kts 259°
2026-04-24 16:18 40.78565 -75.74753 30561 ft 441 kts 259°
2026-04-24 16:18 40.76702 -75.82515 31223 ft 447 kts 259°
2026-04-24 16:18 40.75760 -75.86436 31577 ft 450 kts 259°
2026-04-24 16:19 40.73862 -75.94310 32260 ft 456 kts 259°
2026-04-24 16:19 40.72895 -75.98310 32627 ft 459 kts 259°
2026-04-24 16:20 40.70940 -76.06384 33322 ft 465 kts 258°
2026-04-24 16:20 40.68956 -76.14542 33982 ft 469 kts 258°
2026-04-24 16:20 40.67955 -76.18645 34249 ft 472 kts 258°
2026-04-24 16:21 40.65772 -76.26855 34920 ft 477 kts 253°
2026-04-24 16:21 40.64497 -76.30881 35364 ft 475 kts 253°
2026-04-24 16:21 40.63229 -76.34887 35801 ft 473 kts 253°
2026-04-24 16:22 40.61980 -76.38883 36217 ft 471 kts 253°
2026-04-24 16:22 40.59494 -76.46796 36959 ft 470 kts 252°
2026-04-24 16:22 40.58240 -76.50759 37258 ft 469 kts 252°
2026-04-24 16:23 40.56988 -76.54723 37618 ft 468 kts 252°
2026-04-24 16:23 40.55764 -76.58681 37871 ft 464 kts 256°
2026-04-24 16:23 40.55052 -76.62737 37894 ft 449 kts 269°
2026-04-24 16:24 40.55627 -76.70781 37888 ft 442 kts 285°
2026-04-24 16:24 40.57061 -76.78620 37898 ft 441 kts 284°
2026-04-24 16:25 40.57786 -76.86653 37857 ft 444 kts 277°
2026-04-24 16:25 40.58432 -76.94757 37912 ft 446 kts 281°
2026-04-24 16:26 40.59508 -77.06833 37912 ft 445 kts 279°
2026-04-24 16:27 40.60578 -77.18965 37909 ft 445 kts 279°
2026-04-24 16:27 40.61260 -77.27062 37891 ft 445 kts 280°
2026-04-24 16:28 40.61955 -77.35168 37890 ft 445 kts 279°
2026-04-24 16:28 40.62970 -77.47279 37893 ft 445 kts 279°
2026-04-24 16:29 40.63644 -77.55394 37886 ft 446 kts 279°
2026-04-24 16:30 40.64979 -77.71657 37884 ft 446 kts 280°
2026-04-24 16:30 40.65635 -77.79774 37883 ft 445 kts 280°
2026-04-24 16:31 40.66286 -77.87892 37878 ft 446 kts 280°
2026-04-24 16:31 40.66931 -77.96022 37847 ft 446 kts 280°
2026-04-24 16:32 40.67565 -78.04079 37879 ft 447 kts 280°
2026-04-24 16:32 40.68201 -78.12236 37879 ft 446 kts 280°
2026-04-24 16:33 40.68830 -78.20379 37877 ft 446 kts 280°
2026-04-24 16:33 40.69347 -78.27139 37872 ft 445 kts 280°
2026-04-24 16:34 40.69965 -78.35262 37874 ft 447 kts 279°
2026-04-24 16:34 40.70578 -78.43427 37886 ft 447 kts 279°
2026-04-24 16:35 40.71186 -78.51586 37882 ft 446 kts 279°
2026-04-24 16:35 40.71787 -78.59728 37882 ft 446 kts 279°
2026-04-24 16:36 40.72382 -78.67881 37879 ft 447 kts 279°
2026-04-24 16:36 40.72965 -78.75951 37883 ft 444 kts 279°
2026-04-24 16:37 40.73548 -78.84072 37890 ft 445 kts 279°
2026-04-24 16:37 40.74124 -78.92197 37896 ft 445 kts 279°
2026-04-24 16:38 40.74696 -79.00339 37896 ft 445 kts 279°
2026-04-24 16:38 40.75261 -79.08473 37913 ft 446 kts 279°
2026-04-24 16:39 40.75822 -79.16637 37904 ft 446 kts 279°
2026-04-24 16:39 40.76376 -79.24773 37900 ft 445 kts 279°
2026-04-24 16:40 40.76925 -79.32920 37891 ft 446 kts 278°
2026-04-24 16:40 40.77468 -79.41078 37891 ft 446 kts 278°
2026-04-24 16:41 40.78008 -79.49262 37890 ft 449 kts 278°
2026-04-24 16:41 40.78538 -79.57414 37887 ft 448 kts 278°
2026-04-24 16:42 40.79066 -79.65585 37890 ft 447 kts 278°
2026-04-24 16:42 40.79590 -79.73803 37895 ft 447 kts 278°
2026-04-24 16:43 40.80105 -79.81951 37897 ft 448 kts 277°
2026-04-24 16:43 40.80619 -79.90229 37901 ft 449 kts 277°
2026-04-24 16:44 40.81123 -79.98400 37894 ft 449 kts 277°
2026-04-24 16:44 40.81626 -80.06655 37897 ft 450 kts 277°
2026-04-24 16:45 40.82118 -80.14842 37903 ft 450 kts 277°
2026-04-24 16:45 40.82610 -80.23135 37910 ft 454 kts 277°
2026-04-24 16:46 40.83023 -80.31390 37905 ft 452 kts 276°
2026-04-24 16:46 40.83457 -80.39705 37904 ft 452 kts 276°
2026-04-24 16:47 40.83873 -80.47949 37905 ft 452 kts 276°
2026-04-24 16:47 40.84288 -80.56237 37906 ft 454 kts 276°
2026-04-24 16:48 40.84699 -80.64596 37895 ft 454 kts 276°
2026-04-24 16:48 40.85101 -80.72880 37904 ft 454 kts 276°
2026-04-24 16:49 40.85500 -80.81220 37892 ft 454 kts 276°
2026-04-24 16:49 40.85892 -80.89565 37889 ft 454 kts 276°
2026-04-24 16:50 40.86280 -80.97915 37898 ft 457 kts 276°
2026-04-24 16:50 40.86657 -81.06218 37897 ft 455 kts 276°
2026-04-24 16:51 40.87033 -81.14566 37891 ft 456 kts 276°
2026-04-24 16:51 40.87404 -81.22919 37912 ft 456 kts 276°
2026-04-24 16:52 40.87768 -81.31244 37914 ft 456 kts 276°
2026-04-24 16:52 40.88129 -81.39622 37917 ft 457 kts 276°
2026-04-24 16:53 40.88483 -81.48007 37916 ft 457 kts 276°
2026-04-24 16:53 40.88832 -81.56400 37887 ft 457 kts 276°
2026-04-24 16:54 40.89174 -81.64780 37898 ft 457 kts 276°
2026-04-24 16:54 40.89508 -81.73142 37898 ft 457 kts 276°
2026-04-24 16:55 40.89833 -81.81548 37903 ft 457 kts 276°
2026-04-24 16:55 40.90154 -81.89952 37902 ft 457 kts 276°
2026-04-24 16:56 40.90467 -81.98351 37904 ft 457 kts 276°
2026-04-24 16:56 40.90774 -82.06720 37898 ft 457 kts 276°
2026-04-24 16:57 40.91076 -82.15134 37887 ft 457 kts 276°
2026-04-24 16:57 40.91370 -82.23496 37879 ft 457 kts 276°
2026-04-24 16:58 40.91660 -82.31903 37870 ft 457 kts 276°
2026-04-24 16:58 40.91943 -82.40272 37859 ft 456 kts 276°
2026-04-24 16:59 40.92219 -82.48634 37865 ft 456 kts 276°
2026-04-24 17:00 40.92625 -82.61221 37885 ft 457 kts 276°
2026-04-24 17:00 40.93015 -82.73769 37878 ft 456 kts 276°
2026-04-24 17:01 40.93396 -82.86392 37868 ft 458 kts 275°
2026-04-24 17:02 40.93762 -82.99031 37856 ft 458 kts 275°
2026-04-24 17:02 40.93996 -83.07401 37853 ft 457 kts 275°
2026-04-24 17:03 40.94340 -83.20007 37848 ft 458 kts 274°
2026-04-24 17:04 40.94559 -83.28445 37850 ft 459 kts 274°
2026-04-24 17:04 40.94880 -83.41102 37834 ft 459 kts 274°
2026-04-24 17:05 40.95086 -83.49543 37844 ft 458 kts 274°
2026-04-24 17:06 40.95384 -83.62218 37847 ft 462 kts 274°
2026-04-24 17:06 40.95667 -83.74875 37846 ft 460 kts 274°
2026-04-24 17:07 40.95850 -83.83332 37841 ft 460 kts 274°
2026-04-24 17:08 40.96193 -84.00217 37867 ft 456 kts 273°
2026-04-24 17:08 40.96356 -84.08637 37866 ft 458 kts 273°
2026-04-24 17:09 40.96662 -84.25456 37858 ft 456 kts 273°
2026-04-24 17:10 40.96939 -84.42127 37839 ft 453 kts 272°
2026-04-24 17:12 40.97421 -84.75358 37836 ft 453 kts 272°
2026-04-24 18:54 39.14396 -100.76567 39962 ft 438 kts 256°
2026-04-24 18:55 39.12095 -100.87971 39964 ft 438 kts 256°
2026-04-24 18:56 39.10556 -100.95564 39961 ft 438 kts 256°
2026-04-24 18:56 39.09026 -101.03089 39951 ft 437 kts 256°
2026-04-24 18:57 39.07480 -101.10661 39941 ft 437 kts 256°
2026-04-24 18:57 39.05930 -101.18227 39931 ft 437 kts 256°
2026-04-24 18:58 39.04375 -101.25792 39917 ft 437 kts 256°
2026-04-24 18:58 39.02816 -101.33343 39907 ft 437 kts 256°
2026-04-24 18:59 39.01254 -101.40890 39893 ft 437 kts 256°
2026-04-24 18:59 38.99692 -101.48406 39885 ft 438 kts 256°
2026-04-24 19:00 38.98114 -101.55973 39891 ft 438 kts 256°
2026-04-24 19:00 38.96532 -101.63532 39881 ft 437 kts 256°
2026-04-24 19:01 38.94945 -101.71087 39879 ft 438 kts 256°
2026-04-24 19:01 38.93359 -101.78610 39874 ft 439 kts 256°
2026-04-24 19:02 38.91760 -101.86173 39871 ft 438 kts 256°
2026-04-24 19:02 38.90159 -101.93715 39866 ft 437 kts 256°
2026-04-24 19:03 38.88555 -102.01248 39864 ft 437 kts 256°
2026-04-24 19:03 38.86946 -102.08773 39864 ft 435 kts 256°
2026-04-24 19:04 38.85341 -102.16258 39865 ft 435 kts 256°
2026-04-24 19:04 38.83738 -102.23709 39859 ft 436 kts 256°
2026-04-24 19:05 38.82116 -102.31218 39862 ft 437 kts 256°
2026-04-24 19:05 38.80490 -102.38726 39853 ft 436 kts 256°
2026-04-24 19:06 38.78863 -102.46206 39851 ft 433 kts 256°
2026-04-24 19:06 38.77242 -102.53641 39846 ft 434 kts 256°
2026-04-24 19:07 38.75611 -102.61091 39846 ft 434 kts 256°
2026-04-24 19:07 38.74252 -102.67280 39844 ft 434 kts 256°
2026-04-24 19:08 38.72336 -102.75978 39845 ft 434 kts 256°
2026-04-24 19:08 38.70698 -102.83388 39844 ft 431 kts 256°
2026-04-24 19:09 38.69061 -102.90768 39844 ft 432 kts 256°
2026-04-24 19:09 38.67415 -102.98165 39844 ft 432 kts 256°
2026-04-24 19:10 38.65760 -103.05576 39844 ft 433 kts 256°
2026-04-24 19:10 38.64113 -103.12927 39845 ft 432 kts 256°
2026-04-24 19:11 38.62447 -103.20336 39837 ft 431 kts 256°
2026-04-24 19:11 38.60797 -103.27652 39837 ft 430 kts 256°
2026-04-24 19:12 38.59129 -103.35024 39835 ft 431 kts 255°
2026-04-24 19:12 38.57465 -103.42353 39807 ft 431 kts 256°
2026-04-24 19:13 38.56064 -103.48507 39831 ft 429 kts 256°
2026-04-24 19:13 38.54115 -103.57036 39816 ft 430 kts 255°
2026-04-24 19:14 38.52436 -103.64362 39814 ft 430 kts 255°
2026-04-24 19:14 38.50747 -103.71707 39810 ft 431 kts 255°
2026-04-24 19:15 38.49050 -103.79065 39817 ft 431 kts 255°
2026-04-24 19:15 38.47358 -103.86377 39813 ft 430 kts 255°
2026-04-24 19:16 38.44807 -103.97354 39811 ft 430 kts 255°
2026-04-24 19:16 38.43109 -104.04636 39811 ft 430 kts 255°
2026-04-24 19:17 38.41392 -104.11973 39811 ft 431 kts 255°
2026-04-24 19:17 38.39676 -104.19284 39828 ft 431 kts 255°
2026-04-24 19:18 38.37957 -104.26585 39839 ft 428 kts 255°
2026-04-24 19:18 38.36244 -104.33842 39850 ft 429 kts 255°
2026-04-24 19:19 38.34522 -104.41105 39865 ft 429 kts 255°
2026-04-24 19:19 38.32790 -104.48397 39866 ft 429 kts 255°
2026-04-24 19:20 38.31059 -104.55656 39864 ft 428 kts 255°
2026-04-24 19:20 38.29333 -104.62877 39864 ft 429 kts 255°
2026-04-24 19:21 38.27587 -104.70160 39848 ft 429 kts 255°
2026-04-24 19:21 38.25844 -104.77402 39832 ft 429 kts 255°
2026-04-24 19:22 38.24095 -104.84652 39820 ft 429 kts 255°
2026-04-24 19:22 38.22333 -104.91932 39807 ft 429 kts 255°
2026-04-24 19:23 38.20580 -104.99154 39812 ft 431 kts 255°
2026-04-24 19:23 38.18802 -105.06456 39813 ft 430 kts 255°
2026-04-24 19:24 38.17031 -105.13710 39827 ft 430 kts 255°
2026-04-24 19:24 38.15251 -105.20966 39829 ft 429 kts 255°
2026-04-24 19:25 38.13475 -105.28204 39847 ft 430 kts 255°
2026-04-24 19:25 38.11698 -105.35411 39853 ft 423 kts 255°
2026-04-24 19:26 38.09930 -105.42572 39873 ft 426 kts 255°
2026-04-24 19:26 38.08162 -105.49698 39881 ft 423 kts 255°
2026-04-24 19:27 38.06375 -105.56891 39894 ft 425 kts 255°
2026-04-24 19:27 38.04595 -105.64028 39893 ft 426 kts 255°
2026-04-24 19:28 38.02810 -105.71166 39894 ft 427 kts 255°
2026-04-24 19:28 38.01007 -105.78304 39889 ft 425 kts 252°
2026-04-24 19:29 37.97947 -105.88892 39886 ft 427 kts 253°
2026-04-24 19:30 37.95895 -105.95961 39875 ft 427 kts 252°
2026-04-24 19:30 37.93843 -106.03022 39886 ft 427 kts 252°
2026-04-24 19:31 37.91786 -106.10080 39909 ft 427 kts 252°
2026-04-24 19:31 37.89720 -106.17150 39935 ft 428 kts 252°
2026-04-24 19:32 37.87661 -106.24181 39960 ft 429 kts 252°
2026-04-24 19:32 37.85585 -106.31246 39976 ft 428 kts 252°
2026-04-24 19:33 37.83512 -106.38287 39971 ft 423 kts 252°
2026-04-24 19:33 37.81451 -106.45272 39980 ft 427 kts 252°
2026-04-24 19:34 37.79378 -106.52269 39970 ft 424 kts 252°
2026-04-24 19:34 37.77302 -106.59268 39961 ft 424 kts 252°
2026-04-24 19:35 37.75239 -106.66200 39957 ft 424 kts 252°
2026-04-24 19:35 37.73164 -106.73153 39942 ft 422 kts 252°
2026-04-24 19:36 37.71083 -106.80120 39947 ft 426 kts 252°
2026-04-24 19:36 37.68986 -106.87105 39937 ft 422 kts 252°
2026-04-24 19:37 37.67262 -106.92849 39957 ft 424 kts 252°
2026-04-24 19:37 37.65156 -106.99847 39952 ft 424 kts 252°
2026-04-24 19:38 37.63075 -107.06720 39955 ft 419 kts 252°
2026-04-24 19:38 37.60984 -107.13654 39960 ft 423 kts 252°
2026-04-24 19:39 37.58878 -107.20580 39967 ft 423 kts 252°
2026-04-24 19:39 37.56785 -107.27476 39964 ft 425 kts 252°
2026-04-24 19:40 37.54671 -107.34396 39948 ft 424 kts 252°
2026-04-24 19:40 37.52591 -107.41205 39940 ft 424 kts 252°
2026-04-24 19:41 37.50434 -107.48237 39941 ft 419 kts 252°
2026-04-24 19:41 37.48329 -107.55096 39939 ft 422 kts 252°
2026-04-24 19:42 37.46200 -107.62013 39934 ft 423 kts 252°
2026-04-24 19:42 37.44077 -107.68878 39936 ft 420 kts 252°
2026-04-24 19:43 37.41954 -107.75749 39932 ft 421 kts 252°
2026-04-24 19:43 37.39831 -107.82583 39923 ft 419 kts 252°
2026-04-24 19:44 37.37702 -107.89435 39937 ft 421 kts 251°
2026-04-24 19:44 37.35568 -107.96277 39921 ft 421 kts 251°
2026-04-24 19:45 37.33441 -108.03088 39903 ft 420 kts 251°
2026-04-24 19:45 37.31302 -108.09917 39917 ft 420 kts 251°
2026-04-24 19:46 37.29149 -108.16770 39916 ft 420 kts 251°
2026-04-24 19:46 37.27004 -108.23590 39932 ft 421 kts 251°
2026-04-24 19:47 37.24863 -108.30367 39910 ft 416 kts 251°
2026-04-24 19:47 37.22716 -108.37164 39920 ft 422 kts 251°
2026-04-24 19:48 37.20553 -108.43981 39914 ft 418 kts 251°
2026-04-24 19:48 37.17318 -108.54165 39890 ft 420 kts 251°
2026-04-24 19:49 37.12980 -108.67751 39885 ft 419 kts 251°
2026-04-24 19:50 37.08633 -108.81303 39862 ft 418 kts 251°
2026-04-24 19:51 37.05366 -108.91446 39851 ft 418 kts 251°
2026-04-24 19:52 37.02103 -109.01539 39848 ft 418 kts 251°
2026-04-24 19:52 36.99915 -109.08286 39848 ft 418 kts 251°
2026-04-24 19:53 36.97723 -109.15033 39839 ft 418 kts 251°
2026-04-24 19:54 36.94430 -109.25138 39842 ft 418 kts 251°
2026-04-24 19:54 36.92241 -109.31836 39840 ft 418 kts 251°
2026-04-24 19:55 36.90392 -109.37479 39834 ft 419 kts 251°
2026-04-24 19:55 36.87824 -109.45301 39836 ft 418 kts 251°
2026-04-24 19:56 36.85617 -109.52010 39832 ft 417 kts 250°
2026-04-24 19:56 36.83408 -109.58705 39823 ft 417 kts 250°
2026-04-24 19:57 36.81193 -109.65406 39825 ft 418 kts 250°
2026-04-24 19:57 36.78971 -109.72112 39813 ft 418 kts 250°
2026-04-24 19:58 36.76742 -109.78823 39812 ft 418 kts 250°
2026-04-24 19:58 36.74510 -109.85531 39811 ft 419 kts 250°
2026-04-24 19:59 36.72277 -109.92221 39810 ft 418 kts 250°
2026-04-24 19:59 36.70056 -109.98867 39812 ft 418 kts 250°
2026-04-24 20:00 36.67811 -110.05563 39811 ft 418 kts 250°
2026-04-24 20:00 36.65568 -110.12241 39820 ft 418 kts 250°
2026-04-24 20:01 36.63324 -110.18908 39819 ft 417 kts 250°
2026-04-24 20:01 36.61081 -110.25555 39839 ft 414 kts 250°
2026-04-24 20:02 36.59214 -110.31080 39839 ft 420 kts 250°
2026-04-24 20:02 36.56589 -110.38823 39841 ft 417 kts 250°
2026-04-24 20:03 36.54320 -110.45508 39839 ft 417 kts 250°
2026-04-24 20:03 36.52058 -110.52148 39837 ft 417 kts 250°
2026-04-24 20:04 36.49810 -110.58739 39834 ft 416 kts 250°
2026-04-24 20:04 36.47541 -110.65372 39831 ft 416 kts 250°
2026-04-24 20:05 36.45270 -110.72000 39831 ft 416 kts 250°
2026-04-24 20:05 36.42997 -110.78618 39834 ft 416 kts 250°
2026-04-24 20:06 36.40734 -110.85193 39835 ft 417 kts 250°
2026-04-24 20:06 36.38451 -110.91811 39832 ft 417 kts 250°
2026-04-24 20:07 36.36533 -110.97358 39829 ft 417 kts 250°
2026-04-24 20:07 36.33872 -111.05041 39830 ft 417 kts 249°
2026-04-24 20:08 36.31580 -111.11640 39828 ft 416 kts 249°
2026-04-24 20:08 36.29281 -111.18248 39822 ft 418 kts 249°
2026-04-24 20:09 36.26971 -111.24873 39824 ft 418 kts 249°
2026-04-24 20:09 36.24658 -111.31491 39813 ft 419 kts 249°
2026-04-24 20:10 36.22337 -111.38115 39779 ft 419 kts 249°
2026-04-24 20:10 36.20030 -111.44689 39812 ft 419 kts 249°
2026-04-24 20:11 36.17702 -111.51307 39815 ft 418 kts 249°
2026-04-24 20:11 36.15377 -111.57902 39831 ft 418 kts 249°
2026-04-24 20:12 36.13047 -111.64497 39826 ft 418 kts 249°
2026-04-24 20:12 36.10712 -111.71088 39845 ft 417 kts 249°
2026-04-24 20:13 36.08372 -111.77687 39856 ft 417 kts 249°
2026-04-24 20:13 36.06133 -111.84306 39912 ft 415 kts 251°
2026-04-24 20:14 36.04017 -111.90940 39953 ft 418 kts 251°
2026-04-24 20:14 36.01888 -111.97599 39981 ft 416 kts 251°
2026-04-24 20:15 35.99756 -112.04258 40016 ft 417 kts 251°
2026-04-24 20:15 35.97619 -112.10911 40020 ft 417 kts 251°
2026-04-24 20:16 35.95482 -112.17556 40015 ft 416 kts 251°
2026-04-24 20:16 35.93340 -112.24198 40014 ft 416 kts 251°
2026-04-24 20:17 35.91205 -112.30801 39996 ft 416 kts 251°
2026-04-24 20:17 35.87984 -112.40740 39962 ft 417 kts 251°
2026-04-24 20:18 35.85823 -112.47388 39892 ft 417 kts 251°
2026-04-24 20:18 35.83661 -112.54025 39893 ft 416 kts 251°
2026-04-24 20:19 35.81501 -112.60639 39886 ft 416 kts 251°
2026-04-24 20:19 35.79337 -112.67253 39888 ft 416 kts 251°
2026-04-24 20:20 35.77182 -112.73825 39884 ft 416 kts 251°
2026-04-24 20:20 35.75008 -112.80439 39887 ft 417 kts 250°
2026-04-24 20:21 35.72831 -112.87050 39889 ft 416 kts 250°
2026-04-24 20:21 35.70649 -112.93659 39883 ft 417 kts 250°
2026-04-24 20:22 35.68462 -113.00270 39881 ft 417 kts 250°
2026-04-24 20:22 35.66270 -113.06880 39858 ft 416 kts 250°
2026-04-24 20:23 35.64453 -113.12350 39865 ft 416 kts 250°
2026-04-24 20:23 35.62260 -113.18936 39867 ft 416 kts 250°
2026-04-24 20:24 35.60064 -113.25519 39859 ft 416 kts 250°
2026-04-24 20:24 35.57864 -113.32097 39858 ft 416 kts 250°
2026-04-24 20:25 35.55662 -113.38667 39845 ft 416 kts 250°
2026-04-24 20:25 35.53473 -113.45186 39839 ft 415 kts 250°
2026-04-24 20:26 35.51264 -113.51749 39833 ft 416 kts 250°
2026-04-24 20:26 35.49045 -113.58329 39833 ft 417 kts 250°
2026-04-24 20:27 35.46827 -113.64890 39843 ft 416 kts 250°
2026-04-24 20:27 35.44607 -113.71442 39872 ft 416 kts 250°
2026-04-24 20:28 35.42381 -113.78002 39890 ft 417 kts 250°
2026-04-24 20:28 35.40140 -113.84587 39918 ft 418 kts 250°
2026-04-24 20:29 35.37899 -113.91159 39936 ft 417 kts 250°
2026-04-24 20:29 35.35660 -113.97712 39943 ft 416 kts 250°
2026-04-24 20:30 35.33421 -114.04252 39935 ft 416 kts 250°
2026-04-24 20:30 35.31176 -114.10797 39920 ft 417 kts 250°
2026-04-24 20:31 35.28941 -114.17292 39898 ft 416 kts 250°
2026-04-24 20:31 35.26696 -114.23810 39872 ft 415 kts 250°
2026-04-24 20:32 35.24449 -114.30316 39844 ft 415 kts 250°
2026-04-24 20:32 35.22196 -114.36826 39817 ft 415 kts 250°
2026-04-24 20:33 35.19929 -114.43367 39816 ft 421 kts 249°
2026-04-24 20:33 35.17648 -114.49925 39814 ft 418 kts 249°
2026-04-24 20:34 35.15370 -114.56470 39856 ft 419 kts 249°
2026-04-24 20:34 35.13100 -114.62973 39857 ft 419 kts 249°
2026-04-24 20:35 35.10823 -114.69541 39854 ft 420 kts 249°
2026-04-24 20:35 35.08534 -114.76120 39845 ft 419 kts 249°
2026-04-24 20:36 35.06251 -114.82670 39816 ft 419 kts 249°
2026-04-24 20:36 35.03976 -114.89185 39823 ft 417 kts 249°
2026-04-24 20:37 35.01336 -114.95500 39829 ft 420 kts 245°
2026-04-24 20:37 34.98627 -115.01808 39843 ft 419 kts 245°
2026-04-24 20:38 34.95894 -115.08087 39842 ft 419 kts 245°
2026-04-24 20:38 34.93175 -115.14356 39856 ft 418 kts 245°
2026-04-24 20:39 34.90466 -115.20573 39855 ft 418 kts 245°
2026-04-24 20:39 34.87736 -115.26836 39866 ft 418 kts 245°
2026-04-24 20:40 34.85000 -115.33097 39851 ft 419 kts 245°
2026-04-24 20:40 34.82256 -115.39368 39863 ft 419 kts 245°
2026-04-24 20:41 34.79507 -115.45638 39865 ft 419 kts 246°
2026-04-24 20:41 34.77124 -115.52082 39876 ft 419 kts 249°
2026-04-24 20:42 34.74743 -115.58500 39873 ft 418 kts 249°
2026-04-24 20:42 34.72370 -115.64968 39861 ft 418 kts 249°
2026-04-24 20:43 34.69978 -115.71434 39882 ft 420 kts 249°
2026-04-24 20:43 34.67585 -115.77907 39885 ft 420 kts 249°
2026-04-24 20:44 34.65184 -115.84384 39883 ft 420 kts 249°
2026-04-24 20:44 34.62779 -115.90860 39877 ft 420 kts 249°
2026-04-24 20:45 34.60418 -115.97290 39872 ft 420 kts 249°
2026-04-24 20:45 34.59208 -116.00573 39551 ft 421 kts 249°
2026-04-24 20:45 34.58025 -116.03769 38984 ft 420 kts 249°
2026-04-24 20:46 34.56830 -116.06999 38382 ft 419 kts 249°
2026-04-24 20:46 34.55640 -116.10219 37728 ft 416 kts 249°
2026-04-24 20:46 34.54461 -116.13408 37113 ft 412 kts 248°
2026-04-24 20:46 34.53291 -116.16560 36545 ft 408 kts 248°
2026-04-24 20:47 34.52132 -116.19678 35990 ft 403 kts 248°
2026-04-24 20:47 34.50990 -116.22757 35447 ft 398 kts 248°
2026-04-24 20:47 34.49858 -116.25807 34936 ft 394 kts 248°
2026-04-24 20:47 34.48739 -116.28814 34457 ft 389 kts 247°
2026-04-24 20:48 34.47631 -116.31785 33992 ft 384 kts 247°
2026-04-24 20:48 34.46538 -116.34717 33476 ft 379 kts 247°
2026-04-24 20:48 34.45456 -116.37615 32931 ft 376 kts 247°
2026-04-24 20:48 34.44384 -116.40487 32366 ft 372 kts 247°
2026-04-24 20:49 34.43323 -116.43329 31775 ft 368 kts 247°
2026-04-24 20:49 34.42268 -116.46147 31199 ft 366 kts 247°
2026-04-24 20:49 34.41181 -116.48932 30694 ft 363 kts 245°
2026-04-24 20:49 34.40071 -116.51617 30278 ft 360 kts 246°
2026-04-24 20:50 34.38957 -116.54335 29840 ft 362 kts 246°
2026-04-24 20:50 34.37831 -116.57080 29390 ft 364 kts 246°
2026-04-24 20:50 34.36706 -116.59802 28965 ft 358 kts 246°
2026-04-24 20:50 34.35600 -116.62479 28546 ft 352 kts 246°
2026-04-24 20:51 34.34517 -116.65104 28153 ft 347 kts 246°
2026-04-24 20:51 34.33443 -116.67711 27882 ft 347 kts 246°
2026-04-24 20:51 34.32366 -116.70361 27887 ft 354 kts 247°
2026-04-24 20:51 34.31297 -116.73051 27701 ft 353 kts 247°
2026-04-24 20:52 34.30233 -116.75711 27273 ft 350 kts 247°
2026-04-24 20:52 34.29170 -116.78345 26723 ft 347 kts 247°
2026-04-24 20:52 34.28116 -116.80953 26165 ft 344 kts 247°
2026-04-24 20:52 34.27073 -116.83542 25610 ft 341 kts 247°
2026-04-24 20:53 34.26053 -116.86074 25101 ft 338 kts 248°
2026-04-24 20:53 34.25023 -116.88624 24605 ft 336 kts 248°
2026-04-24 20:53 34.24002 -116.91153 24096 ft 334 kts 248°
2026-04-24 20:53 34.22986 -116.93664 23614 ft 332 kts 248°
2026-04-24 20:54 34.21965 -116.96190 23036 ft 329 kts 248°
2026-04-24 20:54 34.21026 -116.98656 22468 ft 325 kts 252°
2026-04-24 20:54 34.20325 -117.01245 21964 ft 323 kts 254°
2026-04-24 20:54 34.19624 -117.03835 21532 ft 325 kts 254°
2026-04-24 20:55 34.18915 -117.06433 21108 ft 327 kts 253°
2026-04-24 20:55 34.18209 -117.09051 20661 ft 326 kts 253°
2026-04-24 20:55 34.17507 -117.11644 20243 ft 325 kts 253°
2026-04-24 20:55 34.16803 -117.14240 19818 ft 325 kts 253°
2026-04-24 20:56 34.16098 -117.16830 19388 ft 324 kts 253°
2026-04-24 20:56 34.15385 -117.19421 19011 ft 325 kts 252°
2026-04-24 20:56 34.14669 -117.22009 18581 ft 325 kts 252°
2026-04-24 20:56 34.13956 -117.24600 18142 ft 325 kts 252°
2026-04-24 20:57 34.13246 -117.27186 17685 ft 323 kts 252°
2026-04-24 20:57 34.12538 -117.29754 17248 ft 321 kts 252°
2026-04-24 20:57 34.11833 -117.32309 16813 ft 320 kts 252°
2026-04-24 20:57 34.11139 -117.34821 16409 ft 320 kts 252°
2026-04-24 20:58 34.10434 -117.37399 15981 ft 318 kts 253°
2026-04-24 20:58 34.09818 -117.39925 15567 ft 318 kts 253°
2026-04-24 20:58 34.09180 -117.42438 15147 ft 317 kts 253°
2026-04-24 20:58 34.08529 -117.45010 14726 ft 316 kts 253°
2026-04-24 20:59 34.07893 -117.47553 14313 ft 316 kts 253°
2026-04-24 20:59 34.07247 -117.50048 14005 ft 306 kts 249°
2026-04-24 20:59 34.06401 -117.52374 13751 ft 305 kts 247°
2026-04-24 20:59 34.05565 -117.54715 13305 ft 301 kts 247°
2026-04-24 21:00 34.04741 -117.57028 12908 ft 300 kts 247°
2026-04-24 21:00 34.03912 -117.59329 12532 ft 299 kts 247°
2026-04-24 21:00 34.03082 -117.61628 12141 ft 299 kts 247°
2026-04-24 21:00 34.02254 -117.63924 11765 ft 298 kts 247°
2026-04-24 21:01 34.01428 -117.66218 11391 ft 300 kts 247°
2026-04-24 21:01 34.00680 -117.68556 11001 ft 299 kts 257°
2026-04-24 21:01 34.00435 -117.71047 10593 ft 299 kts 263°
2026-04-24 21:01 34.00184 -117.73536 10230 ft 298 kts 262°
2026-04-24 21:02 33.99936 -117.75981 9855 ft 291 kts 263°
2026-04-24 21:02 33.99703 -117.78382 9466 ft 285 kts 263°
2026-04-24 21:02 33.99475 -117.80732 9099 ft 280 kts 263°
2026-04-24 21:02 33.99248 -117.83046 8739 ft 275 kts 263°
2026-04-24 21:03 33.99025 -117.85334 8390 ft 274 kts 263°
2026-04-24 21:03 33.98805 -117.87590 8033 ft 268 kts 263°
2026-04-24 21:03 33.98588 -117.89826 7694 ft 274 kts 263°
2026-04-24 21:03 33.98369 -117.92058 7352 ft 271 kts 263°
2026-04-24 21:04 33.98145 -117.94325 7000 ft 272 kts 263°
2026-04-24 21:04 33.97925 -117.96553 6657 ft 265 kts 263°
2026-04-24 21:04 33.97711 -117.98736 6316 ft 260 kts 264°
2026-04-24 21:04 33.97499 -118.00873 5973 ft 254 kts 263°
2026-04-24 21:05 33.97291 -118.02966 5641 ft 249 kts 263°
2026-04-24 21:05 33.97089 -118.05019 5326 ft 245 kts 263°
2026-04-24 21:05 33.96888 -118.07034 5017 ft 240 kts 263°
2026-04-24 21:05 33.96694 -118.08979 4858 ft 230 kts 263°
2026-04-24 21:06 33.96506 -118.10895 4527 ft 235 kts 263°
2026-04-24 21:06 33.96325 -118.12833 4241 ft 229 kts 262°
2026-04-24 21:06 33.96138 -118.14700 3941 ft 220 kts 262°
2026-04-24 21:06 33.95959 -118.16493 3652 ft 212 kts 262°
2026-04-24 21:07 33.95786 -118.18209 3375 ft 201 kts 261°
2026-04-24 21:07 33.95620 -118.19845 3118 ft 192 kts 261°
2026-04-24 21:07 33.95515 -118.20893 2944 ft 188 kts 261°
2026-04-24 21:07 33.95358 -118.22435 2704 ft 183 kts 261°
2026-04-24 21:08 33.95199 -118.23943 2472 ft 180 kts 258°
2026-04-24 21:08 33.95039 -118.25437 2231 ft 187 kts 260°
2026-04-24 21:08 33.94887 -118.26923 1990 ft 180 kts 260°
2026-04-24 21:08 33.94741 -118.28405 1749 ft 167 kts 258°
2026-04-24 21:09 33.94605 -118.29724 1526 ft 153 kts 260°
2026-04-24 21:09 33.94487 -118.30988 1319 ft 147 kts 257°
2026-04-24 21:09 33.94352 -118.32187 1132 ft 142 kts 257°
2026-04-24 21:09 33.94223 -118.33385 938 ft 145 kts 258°
2026-04-24 21:10 33.94114 -118.34589 748 ft 150 kts 261°
2026-04-24 21:10 33.93992 -118.35829 540 ft 146 kts 261°
2026-04-24 21:10 33.93870 -118.37055 371 ft 146 kts 258°
2026-04-24 21:10 33.93747 -118.38239 171 ft 135 kts 261°
2026-04-24 21:11 33.93638 -118.39275 125 ft 104 kts 262°
2026-04-24 21:11 33.93564 -118.39948 128 ft 60 kts 263°
2026-04-24 21:11 33.93535 -118.40326 123 ft 35 kts 270°
2026-04-24 21:11 33.93566 -118.40558 121 ft 25 kts 289°
2026-04-24 21:12 33.93595 -118.40728 123 ft 17 kts 270°
2026-04-24 21:12 33.93616 -118.40852 128 ft 14 kts 308°
2026-04-24 21:12 33.93700 -118.40899 128 ft 16 kts 350°
2026-04-24 21:12 33.93790 -118.40836 125 ft 12 kts 72°
2026-04-24 21:13 33.93807 -118.40711 131 ft 19 kts 81°
2026-04-24 21:13 33.93823 -118.40534 123 ft 22 kts 84°
2026-04-24 21:13 33.93843 -118.40346 131 ft 23 kts 83°
2026-04-24 21:13 33.93863 -118.40150 125 ft 24 kts 83°
2026-04-24 21:14 33.93912 -118.40058 121 ft 11 kts 24°
2026-04-24 21:14 33.93988 -118.40016 127 ft 11 kts 28°
2026-04-24 21:14 33.94011 -118.40003 126 ft 2 kts 26°
2026-04-24 21:14 33.94023 -118.39995 126 ft 0 kts 27°